Time,TemperatureF,DewpointF,PressureIn,WindDirection,WindDirectionDegrees,WindSpeedMPH,WindSpeedGustMPH,Humidity,HourlyPrecipIn,Conditions,Clouds,dailyrainin,SoftwareType,DateUTC
2013-06-07 00:03:00,71.0,68.0,29.78,SW,229,1.0,-999.0,90,-99.99,,,-99.99,,2013-06-07 04:03:00,
2013-06-07 00:12:00,71.0,68.0,29.78,SW,229,1.0,-999.0,90,-99.99,,,-99.99,,2013-06-07 04:12:00,
2013-06-07 00:23:00,71.0,68.0,29.78,West,267,0.0,-999.0,90,-99.99,,,-99.99,,2013-06-07 04:23:00,
2013-06-07 00:33:00,71.0,68.0,29.77,WSW,250,0.0,-999.0,91,-99.99,,,-99.99,,2013-06-07 04:33:00,
2013-06-07 00:42:00,71.0,68.0,29.77,WSW,250,0.0,-999.0,91,-99.99,,,-99.99,,2013-06-07 04:42:00,
2013-06-07 00:53:00,70.0,68.0,29.76,WSW,249,0.0,-999.0,92,-99.99,,,-99.99,,2013-06-07 04:53:00,
2013-06-07 01:03:00,70.0,68.0,29.76,WSW,248,0.0,-999.0,92,-99.99,,,-99.99,,2013-06-07 05:03:00,
2013-06-07 01:12:00,70.0,68.0,29.76,WSW,248,0.0,-999.0,92,-99.99,,,-99.99,,2013-06-07 05:12:00,
2013-06-07 01:22:00,70.0,68.0,29.76,WSW,247,0.0,-999.0,93,-99.99,,,-99.99,,2013-06-07 05:22:00,
2013-06-07 01:32:00,69.0,67.0,29.76,WSW,247,0.0,-999.0,93,-99.99,,,-99.99,,2013-06-07 05:32:00,
2013-06-07 01:42:00,69.0,67.0,29.76,WSW,247,0.0,-999.0,93,-99.99,,,-99.99,,2013-06-07 05:42:00,
2013-06-07 01:52:00,69.0,67.0,29.75,WSW,247,0.0,-999.0,93,-99.99,,,-99.99,,2013-06-07 05:52:00,
2013-06-07 02:02:00,69.0,67.0,29.75,WSW,247,0.0,-999.0,93,-99.99,,,-99.99,,2013-06-07 06:02:00,
2013-06-07 02:12:00,69.0,67.0,29.75,WSW,247,0.0,-999.0,93,-99.99,,,-99.99,,2013-06-07 06:12:00,
2013-06-07 02:22:00,68.0,66.0,29.75,WSW,247,0.0,-999.0,93,-99.99,,,-99.99,,2013-06-07 06:22:00,
2013-06-07 02:32:00,68.0,66.0,29.75,WSW,247,0.0,-999.0,93,-99.99,,,-99.99,,2013-06-07 06:32:00,
2013-06-07 02:42:00,68.0,66.0,29.75,WSW,247,0.0,-999.0,93,-99.99,,,-99.99,,2013-06-07 06:42:00,
2013-06-07 02:52:00,68.0,66.0,29.74,WSW,247,0.0,-999.0,93,-99.99,,,-99.99,,2013-06-07 06:52:00,
2013-06-07 03:02:00,68.0,66.0,29.73,WSW,247,0.0,-999.0,94,-99.99,,,-99.99,,2013-06-07 07:02:00,
2013-06-07 03:12:00,68.0,66.0,29.73,WSW,247,0.0,-999.0,94,-99.99,,,-99.99,,2013-06-07 07:12:00,
2013-06-07 03:22:00,68.0,66.0,29.73,WSW,247,0.0,-999.0,94,-99.99,,,-99.99,,2013-06-07 07:22:00,
2013-06-07 03:32:00,68.0,66.0,29.72,WSW,247,0.0,-999.0,94,-99.99,,,-99.99,,2013-06-07 07:32:00,
2013-06-07 03:42:00,68.0,66.0,29.72,WSW,247,0.0,-999.0,94,-99.99,,,-99.99,,2013-06-07 07:42:00,
2013-06-07 03:52:00,68.0,66.0,29.72,WSW,247,0.0,-999.0,94,-99.99,,,-99.99,,2013-06-07 07:52:00,
2013-06-07 04:02:00,68.0,66.0,29.72,WSW,247,0.0,-999.0,94,-99.99,,,-99.99,,2013-06-07 08:02:00,
2013-06-07 04:12:00,68.0,66.0,29.72,WSW,247,0.0,-999.0,94,-99.99,,,-99.99,,2013-06-07 08:12:00,
2013-06-07 04:22:00,68.0,66.0,29.72,WSW,247,0.0,-999.0,94,-99.99,,,-99.99,,2013-06-07 08:22:00,
2013-06-07 04:32:00,68.0,66.0,29.72,WSW,247,0.0,-999.0,94,-99.99,,,-99.99,,2013-06-07 08:32:00,
2013-06-07 04:43:00,68.0,66.0,29.72,WSW,247,0.0,-999.0,94,-99.99,,,-99.99,,2013-06-07 08:43:00,
2013-06-07 04:52:00,68.0,66.0,29.72,WSW,247,0.0,-999.0,94,-99.99,,,-99.99,,2013-06-07 08:52:00,
2013-06-07 05:02:00,68.0,66.0,29.71,WSW,247,0.0,-999.0,94,-99.99,,,-99.99,,2013-06-07 09:02:00,
2013-06-07 05:12:00,68.0,66.0,29.71,WSW,247,0.0,-999.0,94,-99.99,,,-99.99,,2013-06-07 09:12:00,
2013-06-07 05:22:00,68.0,66.0,29.72,WSW,247,0.0,-999.0,94,-99.99,,,-99.99,,2013-06-07 09:22:00,
2013-06-07 05:32:00,68.0,66.0,29.72,WSW,247,0.0,-999.0,94,-99.99,,,-99.99,,2013-06-07 09:32:00,
2013-06-07 05:43:00,68.0,66.0,29.72,WSW,247,0.0,-999.0,94,-99.99,,,-99.99,,2013-06-07 09:43:00,
2013-06-07 05:53:00,68.0,67.0,29.71,WSW,247,0.0,-999.0,95,-99.99,,,-99.99,,2013-06-07 09:53:00,
2013-06-07 06:03:00,68.0,67.0,29.71,WSW,247,0.0,-999.0,95,-99.99,,,-99.99,,2013-06-07 10:03:00,
2013-06-07 06:13:00,68.0,67.0,29.71,WSW,247,0.0,-999.0,95,-99.99,,,-99.99,,2013-06-07 10:13:00,
2013-06-07 06:23:00,68.0,67.0,29.72,WSW,247,0.0,-999.0,95,-99.99,,,-99.99,,2013-06-07 10:23:00,
2013-06-07 06:33:00,68.0,67.0,29.72,WSW,247,0.0,-999.0,95,-99.99,,,-99.99,,2013-06-07 10:33:00,
2013-06-07 06:42:00,68.0,67.0,29.72,WSW,247,0.0,-999.0,95,-99.99,,,-99.99,,2013-06-07 10:42:00,
2013-06-07 06:53:00,68.0,67.0,29.72,WSW,258,0.0,-999.0,95,-99.99,,,-99.99,,2013-06-07 10:53:00,
2013-06-07 07:02:00,68.0,67.0,29.72,WSW,258,0.0,-999.0,95,-99.99,,,-99.99,,2013-06-07 11:02:00,
2013-06-07 07:12:00,68.0,67.0,29.72,WSW,258,0.0,-999.0,95,-99.99,,,-99.99,,2013-06-07 11:12:00,
2013-06-07 07:22:00,68.0,67.0,29.73,WSW,258,0.0,-999.0,95,-99.99,,,-99.99,,2013-06-07 11:22:00,
2013-06-07 07:32:00,68.0,67.0,29.73,WSW,258,0.0,-999.0,95,-99.99,,,-99.99,,2013-06-07 11:32:00,
2013-06-07 07:42:00,68.0,67.0,29.73,WSW,258,0.0,-999.0,95,-99.99,,,-99.99,,2013-06-07 11:42:00,
2013-06-07 07:52:00,68.0,67.0,29.73,WSW,258,0.0,-999.0,95,-99.99,,,-99.99,,2013-06-07 11:52:00,
2013-06-07 08:02:00,68.0,67.0,29.73,WSW,258,0.0,-999.0,95,-99.99,,,-99.99,,2013-06-07 12:02:00,
2013-06-07 08:12:00,68.0,67.0,29.73,WSW,258,0.0,-999.0,95,-99.99,,,-99.99,,2013-06-07 12:12:00,
2013-06-07 08:22:00,68.0,67.0,29.73,WSW,258,0.0,-999.0,95,-99.99,,,-99.99,,2013-06-07 12:22:00,
2013-06-07 08:32:00,68.0,67.0,29.73,WSW,258,0.0,-999.0,95,-99.99,,,-99.99,,2013-06-07 12:32:00,
2013-06-07 08:42:00,68.0,67.0,29.73,WSW,258,0.0,-999.0,95,-99.99,,,-99.99,,2013-06-07 12:42:00,
2013-06-07 08:52:00,-999.0,-99.9,29.73,West,260,0.0,-999.0,-999,-99.99,,,-99.99,,2013-06-07 12:52:00,
2013-06-07 09:02:00,-999.0,-99.9,29.74,West,260,0.0,-999.0,-999,-99.99,,,-99.99,,2013-06-07 13:02:00,
2013-06-07 09:13:00,-999.0,-99.9,29.74,West,260,0.0,-999.0,-999,-99.99,,,-99.99,,2013-06-07 13:13:00,
2013-06-07 09:22:00,-999.0,-99.9,29.74,West,261,0.0,-999.0,-999,-99.99,,,-99.99,,2013-06-07 13:22:00,
2013-06-07 09:33:00,-999.0,-99.9,29.74,WSW,251,0.0,-999.0,-999,-99.99,,,-99.99,,2013-06-07 13:33:00,
2013-06-07 09:43:00,-999.0,-99.9,29.74,WSW,251,0.0,-999.0,-999,-99.99,,,-99.99,,2013-06-07 13:43:00,
2013-06-07 09:52:00,-999.0,-99.9,29.75,WSW,249,0.0,-999.0,-999,-99.99,,,-99.99,,2013-06-07 13:52:00,
2013-06-07 10:03:00,-999.0,-99.9,29.75,WSW,249,0.0,-999.0,-999,-99.99,,,-99.99,,2013-06-07 14:03:00,
2013-06-07 10:13:00,-999.0,-99.9,29.75,WSW,249,0.0,-999.0,-999,-99.99,,,-99.99,,2013-06-07 14:13:00,
2013-06-07 10:23:00,-999.0,-99.9,29.75,SW,234,0.0,-999.0,-999,-99.99,,,-99.99,,2013-06-07 14:23:00,
2013-06-07 10:33:00,-999.0,-99.9,29.75,SW,225,0.0,-999.0,-999,-99.99,,,-99.99,,2013-06-07 14:33:00,
2013-06-07 10:42:00,-999.0,-99.9,29.75,SW,225,0.0,-999.0,-999,-99.99,,,-99.99,,2013-06-07 14:42:00,
2013-06-07 10:52:00,-999.0,-99.9,29.76,SW,225,0.0,-999.0,-999,-99.99,,,-99.99,,2013-06-07 14:52:00,
2013-06-07 11:03:00,-999.0,-99.9,29.75,SW,224,0.0,-999.0,-999,-99.99,,,-99.99,,2013-06-07 15:03:00,
2013-06-07 11:13:00,-999.0,-99.9,29.75,SW,224,0.0,-999.0,-999,-99.99,,,-99.99,,2013-06-07 15:13:00,
2013-06-07 11:23:00,-999.0,-99.9,29.75,SSW,209,0.0,-999.0,-999,-99.99,,,-99.99,,2013-06-07 15:23:00,
2013-06-07 11:33:00,-999.0,-99.9,29.75,SE,126,0.0,-999.0,-999,-99.99,,,-99.99,,2013-06-07 15:33:00,
2013-06-07 11:43:00,-999.0,-99.9,29.75,SE,126,0.0,-999.0,-999,-99.99,,,-99.99,,2013-06-07 15:43:00,
2013-06-07 11:53:00,-999.0,-99.9,29.75,ENE,57,0.0,-999.0,-999,-99.99,,,-99.99,,2013-06-07 15:53:00,
2013-06-07 12:03:00,80.0,73.0,29.75,NE,55,0.0,-999.0,80,-99.99,,,-99.99,,2013-06-07 16:03:00,
2013-06-07 12:13:00,80.0,73.0,29.75,NE,55,0.0,-999.0,80,-99.99,,,-99.99,,2013-06-07 16:13:00,
2013-06-07 12:22:00,80.0,72.0,29.75,NE,55,0.0,-999.0,78,-99.99,,,-99.99,,2013-06-07 16:22:00,
2013-06-07 12:33:00,81.0,73.0,29.75,SSW,209,1.0,-999.0,77,-99.99,,,-99.99,,2013-06-07 16:33:00,
2013-06-07 12:43:00,81.0,73.0,29.75,SSW,209,1.0,-999.0,77,-99.99,,,-99.99,,2013-06-07 16:43:00,
2013-06-07 12:53:00,81.0,73.0,29.75,SSW,196,0.0,-999.0,78,-99.99,,,-99.99,,2013-06-07 16:53:00,
2013-06-07 13:03:00,81.0,73.0,29.75,SW,224,1.0,-999.0,77,-99.99,,,-99.99,,2013-06-07 17:03:00,
2013-06-07 13:13:00,81.0,73.0,29.75,SW,224,1.0,-999.0,77,-99.99,,,-99.99,,2013-06-07 17:13:00,
2013-06-07 13:23:00,82.0,73.0,29.75,SSW,196,1.0,-999.0,75,-99.99,,,-99.99,,2013-06-07 17:23:00,
2013-06-07 13:32:00,83.0,75.0,29.75,West,265,0.0,-999.0,76,-99.99,,,-99.99,,2013-06-07 17:32:00,
2013-06-07 13:43:00,83.0,75.0,29.75,West,265,0.0,-999.0,76,-99.99,,,-99.99,,2013-06-07 17:43:00,
2013-06-07 13:52:00,83.0,74.0,29.74,NNW,347,0.0,-999.0,75,-99.99,,,-99.99,,2013-06-07 17:52:00,
2013-06-07 14:08:00,83.0,73.0,29.73,NNE,16,0.0,-999.0,72,-99.99,,,-99.99,,2013-06-07 18:08:00,
2013-06-07 14:20:00,83.0,73.0,29.73,NNE,16,0.0,-999.0,72,-99.99,,,-99.99,,2013-06-07 18:20:00,
2013-06-07 14:26:00,84.0,74.0,29.73,North,355,1.0,-999.0,72,-99.99,,,-99.99,,2013-06-07 18:26:00,
2013-06-07 14:36:00,85.0,75.0,29.72,WNW,282,0.0,-999.0,72,-99.99,,,-99.99,,2013-06-07 18:36:00,
2013-06-07 15:00:00,86.0,74.0,29.73,NW,319,0.0,-999.0,67,-99.99,,,-99.99,,2013-06-07 19:00:00,
2013-06-07 15:08:00,87.0,74.0,29.73,WNW,290,0.0,-999.0,65,-99.99,,,-99.99,,2013-06-07 19:08:00,
2013-06-07 15:15:00,87.0,74.0,29.73,WNW,290,0.0,-999.0,65,-99.99,,,-99.99,,2013-06-07 19:15:00,
2013-06-07 15:29:00,87.0,73.0,29.72,North,355,0.0,-999.0,63,-99.99,,,-99.99,,2013-06-07 19:29:00,
2013-06-07 15:37:00,87.0,73.0,29.72,NE,36,1.0,-999.0,63,-99.99,,,-99.99,,2013-06-07 19:37:00,
2013-06-07 15:48:00,87.0,73.0,29.72,NE,36,1.0,-999.0,63,-99.99,,,-99.99,,2013-06-07 19:48:00,
2013-06-07 15:59:00,87.0,72.0,29.71,North,10,0.0,-999.0,62,-99.99,,,-99.99,,2013-06-07 19:59:00,
2013-06-07 16:16:00,86.0,72.0,29.71,North,355,0.0,-999.0,64,-99.99,,,-99.99,,2013-06-07 20:16:00,
2013-06-07 16:27:00,85.0,72.0,29.71,North,350,0.0,-999.0,66,-99.99,,,-99.99,,2013-06-07 20:27:00,
2013-06-07 16:38:00,84.0,71.0,29.71,North,351,0.0,-999.0,66,-99.99,,,-99.99,,2013-06-07 20:38:00,
2013-06-07 16:58:00,83.0,71.0,29.70,North,351,0.0,-999.0,67,-99.99,,,-99.99,,2013-06-07 20:58:00,
2013-06-07 17:05:00,81.0,70.0,29.72,North,351,0.0,-999.0,70,-99.99,,,-99.99,,2013-06-07 21:05:00,
2013-06-07 17:19:00,81.0,70.0,29.72,North,351,0.0,-999.0,70,-99.99,,,-99.99,,2013-06-07 21:19:00,
2013-06-07 17:29:00,79.0,69.0,29.74,North,351,0.0,-999.0,72,-99.99,,,-99.99,,2013-06-07 21:29:00,
2013-06-07 17:39:00,78.0,70.0,29.75,NNW,348,0.0,-999.0,76,-99.99,,,-99.99,,2013-06-07 21:39:00,
2013-06-07 17:45:00,78.0,70.0,29.75,NNW,348,0.0,-999.0,76,-99.99,,,-99.99,,2013-06-07 21:45:00,
2013-06-07 18:02:00,77.0,70.0,29.75,NNW,348,0.0,-999.0,79,-99.99,,,-99.99,,2013-06-07 22:02:00,
2013-06-07 18:22:00,75.0,69.0,29.77,WSW,239,1.0,-999.0,83,-99.99,,,-99.99,,2013-06-07 22:22:00,
2013-06-07 18:28:00,73.0,68.0,29.78,SSW,213,3.0,-999.0,85,-99.99,,,-99.99,,2013-06-07 22:28:00,
2013-06-07 18:38:00,72.0,68.0,29.79,SW,218,1.0,-999.0,87,-99.99,,,-99.99,,2013-06-07 22:38:00,
2013-06-07 18:47:00,72.0,68.0,29.79,SW,218,1.0,-999.0,87,-99.99,,,-99.99,,2013-06-07 22:47:00,
2013-06-07 19:00:00,70.0,66.0,29.79,West,261,1.0,-999.0,88,-99.99,,,-99.99,,2013-06-07 23:00:00,
2013-06-07 19:19:00,69.0,66.0,29.79,West,261,0.0,-999.0,89,-99.99,,,-99.99,,2013-06-07 23:19:00,
2013-06-07 19:30:00,69.0,66.0,29.80,WSW,252,0.0,-999.0,90,-99.99,,,-99.99,,2013-06-07 23:30:00,
2013-06-07 19:37:00,68.0,65.0,29.80,SW,223,0.0,-999.0,91,-99.99,,,-99.99,,2013-06-07 23:37:00,
2013-06-07 19:50:00,68.0,65.0,29.80,SW,223,0.0,-999.0,91,-99.99,,,-99.99,,2013-06-07 23:50:00,
2013-06-07 20:12:00,68.0,66.0,29.80,SW,225,0.0,-999.0,92,-99.99,,,-99.99,,2013-06-08 00:12:00,
2013-06-07 20:18:00,68.0,66.0,29.80,SW,225,0.0,-999.0,93,-99.99,,,-99.99,,2013-06-08 00:18:00,
2013-06-07 20:29:00,68.0,66.0,29.80,SW,225,0.0,-999.0,93,-99.99,,,-99.99,,2013-06-08 00:29:00,
2013-06-07 20:34:00,68.0,66.0,29.81,SW,225,1.0,-999.0,93,-99.99,,,-99.99,,2013-06-08 00:34:00,
2013-06-07 20:45:00,68.0,66.0,29.81,SW,225,1.0,-999.0,93,-99.99,,,-99.99,,2013-06-08 00:45:00,
2013-06-07 21:01:00,68.0,66.0,29.81,SW,225,0.0,-999.0,94,-99.99,,,-99.99,,2013-06-08 01:01:00,
2013-06-07 21:07:00,68.0,66.0,29.80,SW,225,0.0,-999.0,94,-99.99,,,-99.99,,2013-06-08 01:07:00,
2013-06-07 21:29:00,68.0,66.0,29.80,SW,225,0.0,-999.0,94,-99.99,,,-99.99,,2013-06-08 01:29:00,
2013-06-07 21:38:00,67.0,65.0,29.80,SW,225,0.0,-999.0,94,-99.99,,,-99.99,,2013-06-08 01:38:00,
2013-06-07 21:45:00,67.0,65.0,29.80,SW,225,0.0,-999.0,94,-99.99,,,-99.99,,2013-06-08 01:45:00,
2013-06-07 22:02:00,67.0,65.0,29.81,SW,225,0.0,-999.0,94,-99.99,,,-99.99,,2013-06-08 02:02:00,
2013-06-07 22:15:00,67.0,65.0,29.82,SW,225,0.0,-999.0,94,-99.99,,,-99.99,,2013-06-08 02:15:00,
2013-06-07 22:29:00,67.0,65.0,29.83,SW,225,0.0,-999.0,94,-99.99,,,-99.99,,2013-06-08 02:29:00,
2013-06-07 22:35:00,67.0,65.0,29.84,SW,225,0.0,-999.0,94,-99.99,,,-99.99,,2013-06-08 02:35:00,
2013-06-07 22:47:00,67.0,65.0,29.84,SW,225,0.0,-999.0,94,-99.99,,,-99.99,,2013-06-08 02:47:00,
2013-06-07 22:59:00,67.0,65.0,29.85,SW,225,0.0,-999.0,94,-99.99,,,-99.99,,2013-06-08 02:59:00,
2013-06-07 23:17:00,67.0,65.0,29.85,SW,225,0.0,-999.0,94,-99.99,,,-99.99,,2013-06-08 03:17:00,
2013-06-07 23:27:00,67.0,65.0,29.86,SW,225,0.0,-999.0,94,-99.99,,,-99.99,,2013-06-08 03:27:00,
2013-06-07 23:37:00,67.0,65.0,29.86,SW,225,0.0,-999.0,94,-99.99,,,-99.99,,2013-06-08 03:37:00,
2013-06-07 23:52:00,67.0,65.0,29.86,SW,225,0.0,-999.0,94,-99.99,,,-99.99,,2013-06-08 03:52:00,